Location: D�derode
(51.8092°N, 10.1065°E)
Time: 06:20:22
(UTC+00:00)

Cosmos 371 Rocket - Pass Details

Date: 01 December 2020
Orbit: 685 x 698 km, 74.0° (Epoch: 23 January)

Event Time Altitude Azimuth Distance (km) Brightness Sun altitude
Rises 16:40:59 0° 339° (NNW) 3,095 6.7 -13.0°
Reaches altitude 10° 16:43:41 10° 353° (N) 2,173 5.7 -13.3°
Maximum altitude 16:47:46 26° 49° (NE) 1,383 4.3 -13.9°
Enters shadow 16:49:17 22° 78° (ENE) 1,517 4.4 -14.2°
